SCP
0 0 0 0 0 0 0 0 0 0 0 0 0 0 0 0 0 0 0 0 0 0 0 0 0 0 0 0 0 0 0 0 0 0 0 0 0 0 0 0 0 0 0
0 0 0 0 0 0 0 0 0 0 0 0 0 0 0 0 0 0 0 0 0 0 0 0 0 0 0 0 0 0 0 0 0 0 0 0 0 0 0 0 0 0 0
0 0 0 0 0 0 0 0 0 0 0 0 0 0 0 0 0 0 0 0 0 0 0 0 0 0 0 0 0 0 0 0 0 0 0 0 0 0 0 0 0 0 0
0 0 0 0 0 0 0 0 0 0 0 0 0 0 0 0 0 0 0 0 0 0 0 0 0 0 0 0 0 0 0 0 0 0 0 0 0 0 0 0 0 0 0
0 0 0 0 0 0 0 0 0 0 0 0 0 0 0 0 0 0 0 0 0 0 0 0 0 0 0 0 0 0 0 0 0 0 0 0 0 0 0 0 0 0 0
0 0 0 0 0 0 0 0 0 0 0 0 0 0 0 0 0 0 0 0 0 0 0 0 0 0 0 0 0 0 0 0 0 0 0 0 0 0 0 0 0 0 0
0 0 0 0 0 0 0 0 0 0 0 0 0 0 0 0 0 0 0 0 0 0 0 0 0 0 0 0 0 0 0 0 0 0 0 0 0 0 0 0 0 0 0
0 0 0 0 0 0 0 0 0 0 0 0 0 0 0 0 0 0 0 0 0 0 0 0 0 0 0 0 0 0 0 0 0 0 0 0 0 0 0 0 0 0 0
0 0 0 0 0 0 0 0 0 0 0 0 0 0 0 0 0 0 0 0 0 0 0 0 0 0 0 0 0 0 0 0 0 0 0 0 0 0 0 0 0 0 0
0 0 0 0 0 0 0 0 0 0 0 0 0 0 0 0 0 0 0 0 0 0 0 0 0 0 0 0 0 0 0 0 0 0 0 0 0 0 0 0 0 0 0
0 0 0 0 0 0 0 0 0 0 0 0 0 0 0 0 0 0 0 0 0 0 0 0 0 0 0 0 0 0 0 0 0 0 0 0 0 0 0 0 0 0 0
0 0 0 0 0 0 0 0 0 0 0 0 0 0 0 0 0 0 0 0 0 0 0 0 0 0 0 0 0 0 0 0 0 0 0 0 0 0 0 0 0 0 0
0 0 0 0 0 0 0 0 0 0 0 0 0 0 0 0 0 0 0 0 0 0 0 0 0 0 0 0 0 0 0 0 0 0 0 0 0 0 0 0 0 0 0
0 0 0 0 0 0 0 0 0 0 0 0 0 0 0 0 0 0 0 0 0 0 0 0 0 0 0 0 0 0 0 0 0 0 0 0 0 0 0 0 0 0 0
0 0 0 0 0 0 0 0 0 0 0 0 0 0 0 0 0 0 0 0 0 0 0 0 0 0 0 0 0 0 0 0 0 0 0 0 0 0 0 0 0 0 0
0 0 0 0 0 0 0 0 0 0 0 0 0 0 0 0 0 0 0 0 0 0 0 0 0 0 0 0 0 0 0 0 0 0 0 0 0 0 0 0 0 0 0
0 0 0 0 0 0 0 0 0 0 0 0 0 0 0 0 0 0 0 0 0 0 0 0 0 0 0 0 0 0 0 0 0 0 0 0 0 0 0 0 0 0 0
0 0 0 0 0 0 0 0 0 0 0 0 0 0 0 0 0 0 0 0 0 0 0 0 0 0 0 0 0 0 0 0 0 0 0 0 0 0 0 0 0 0 0
0 0 0 0 0 0 0 0 0 0 0 0 0 0 0 0 0 0 0 0 0 0 0 0 0 0 0 0 0 0 0 0 0 0 0 0 0 0 0 0 0 0 0
0 0 0 0 0 0 0 0 0 0 0 0 0 0 0 0 0 0 0 0 0 0 0 0 0 0 0 0 0 0 0 0 0 0 0 0 0 0 0 0 0 0 0
0 0 0 0 0 0 0 0 0 0 0 0 0 0 0 0 0 0 0 0 0 0 0 0 0 0 0 0 0 0 0 0 0 0 0 0 0 0 0 0 0 0 0
0 0 0 0 0 0 0 0 0 0 0 0 0 0 0 0 0 0 0 0 0 0 0 0 0 0 0 0 0 0 0 0 0 0 0 0 0 0 0 0 0 0 0
0 0 0 0 0 0 0 0 0 0 0 0 0 0 0 0 0 0 0 0 0 0 0 0 0 0 0 0 0 0 0 0 0 0 0 0 0 0 0 0 0 0 0
0 0 0 0 0 0 0 0 0 0 0 0 0 0 0 0 0 0 0 0 0 0 0 0 0 0 0 0 0 0 0 0 0 0 0 0 0 0 0 0 0 0 0
0 0 0 0 0 0 0 0 0 0 0 0 0 0 0 0 0 0 0 0 0 0 0 0 0 0 0 0 0 0 0 0 0 0 0 0 0 0 0 0 0 0 0
0 0 0 0 -0 0 0 0 0 0 0 0 0 0 0 0 0 0 0 0 0 0 0 0 0 0 0 0 0 0 0 0 0 0 0 0 0 0 0 0 0 0 0
Wind_Speed
2 2 2 3 3 3 3 4 4 5 5 5 5 6 5 5 5 4 4 9 10 9 9 9 8 8 8 8 7 7 7 7 7 7 6 7 7 7 7 7 7 7 7
2 2 2 3 3 3 3 3 4 4 4 4 5 5 5 5 5 5 4 6 10 10 9 8 8 8 8 7 7 7 7 7 6 7 7 7 7 7 7 7 8 8 7
2 2 2 3 2 3 4 4 4 4 4 4 4 4 4 4 4 5 5 4 5 9 10 9 8 8 7 7 6 7 6 6 6 6 7 7 7 7 7 7 7 7 7
3 3 2 2 2 3 3 3 3 4 4 3 3 3 3 3 4 4 4 4 4 4 7 9 8 7 7 7 7 6 6 6 5 5 6 6 7 6 7 7 7 7 7
3 3 2 2 3 3 2 3 3 3 3 3 3 3 3 3 3 4 4 4 4 4 4 6 8 8 7 6 6 6 5 5 5 5 6 6 6 6 6 7 7 7 7
3 3 2 2 3 3 3 3 3 3 2 3 4 4 3 3 3 3 3 3 3 4 4 4 4 5 7 7 6 6 5 5 4 5 6 7 6 6 6 6 7 7 7
3 3 3 2 2 3 3 3 3 3 2 2 3 3 3 4 3 3 3 3 3 3 4 4 3 3 3 7 7 7 6 6 6 6 7 6 6 5 5 5 6 6 6
2 3 3 3 3 3 3 3 3 2 1 1 2 2 2 3 3 3 2 2 3 3 3 3 3 3 3 2 5 7 7 7 7 7 7 6 6 5 6 5 5 5 5
1 2 3 3 3 3 3 2 3 3 2 0 1 3 2 1 1 3 3 3 3 2 2 2 3 3 3 2 3 5 7 6 6 6 6 5 5 5 5 5 4 5 5
1 2 2 3 3 2 3 3 2 2 3 1 1 1 1 3 2 1 2 2 2 2 2 2 3 3 3 2 3 4 5 6 5 5 5 4 4 4 4 4 4 4 4
1 1 2 2 2 2 3 2 2 2 2 2 2 1 2 2 2 2 0 2 2 2 1 2 2 2 2 2 1 2 4 4 4 4 4 4 3 3 3 3 3 3 4
1 1 1 1 2 2 2 3 2 2 2 2 2 2 2 2 2 2 2 1 1 2 2 1 1 2 2 2 2 3 3 3 4 4 4 3 3 3 3 3 3 3 3
0 1 0 1 1 1 2 2 2 2 2 2 2 2 2 2 2 2 2 1 0 1 2 1 1 1 1 2 2 3 2 3 3 3 3 3 3 2 2 2 2 3 3
1 1 1 1 0 1 1 1 1 2 2 2 2 2 1 1 2 3 3 3 1 1 1 2 1 1 1 1 2 3 2 2 2 2 3 3 3 3 3 2 2 3 3
1 1 1 1 1 1 1 1 1 1 1 1 2 2 1 1 1 2 2 3 4 2 1 2 1 1 1 1 2 2 1 2 3 2 2 2 2 3 3 3 4 3 3
1 1 1 1 1 1 1 1 1 0 1 1 1 2 1 1 1 1 2 2 2 3 2 1 1 1 1 1 2 2 2 3 3 3 3 2 2 2 2 3 3 4 3
1 1 1 1 1 1 1 1 1 1 1 1 1 2 1 2 2 1 2 2 2 2 2 1 0 1 1 1 2 2 1 2 2 2 2 2 2 2 2 2 3 3 3
1 1 2 2 1 1 1 1 1 1 1 1 1 1 1 2 2 2 2 2 2 2 3 2 0 1 0 0 1 1 2 1 1 2 2 1 1 1 2 2 2 2 3
2 1 1 2 1 1 1 1 1 1 1 1 2 2 2 2 2 1 2 2 2 2 2 2 1 0 0 1 1 1 2 2 2 1 1 1 1 2 2 2 2 2 3
2 2 1 1 1 1 1 1 1 1 1 1 1 2 2 3 3 3 3 2 2 2 2 2 1 0 0 0 1 1 1 1 2 2 2 1 1 1 1 1 1 2 2
2 2 1 1 1 1 1 2 2 2 1 0 0 0 1 2 3 3 3 3 3 3 2 2 2 1 0 1 1 1 1 1 1 1 1 1 1 1 1 1 0 1 1
2 2 1 1 1 1 1 3 3 2 1 1 1 1 1 1 1 2 4 5 6 5 4 3 2 2 2 2 1 1 1 0 1 1 0 1 0 1 1 1 1 1 1
2 2 2 2 2 3 2 2 4 3 2 2 1 1 1 1 1 1 2 3 3 5 6 5 4 4 3 4 3 2 2 2 2 1 1 1 0 1 1 1 2 2 2
2 2 2 2 2 3 3 3 3 2 2 2 2 2 2 2 1 2 2 2 1 2 3 4 4 4 4 4 4 4 3 2 0 0 1 1 1 1 1 1 2 2 2
2 2 2 2 2 3 3 2 2 2 1 2 2 2 2 3 3 4 3 2 1 2 2 3 3 2 2 3 4 3 2 2 1 1 1 2 1 1 1 1 2 2 3
2 2 2 2 2 3 3 3 3 2 2 2 2 2 3 3 4 4 4 3 3 3 1 1 1 1 1 2 4 4 4 3 2 2 2 2 1 1 1 2 1 1 1
Wind_Direction
71 64 58 55 57 65 71 73 71 69 66 62 60 62 57 52 49 43 35 51 58 64 70 72 71 69 69 68 67 70 72 72 69 72 80 83 85 83 85 86 86 86 88
90 84 73 66 62 66 71 75 75 73 66 65 61 59 58 53 48 46 39 37 44 51 61 67 68 65 64 65 65 67 73 77 74 74 77 83 86 91 88 86 82 81 86
101 96 88 84 77 79 78 78 75 71 70 66 58 56 58 55 51 44 40 35 29 38 46 54 60 59 59 60 64 66 68 75 81 79 77 79 83 86 82 83 81 80 81
97 97 94 90 91 88 85 84 80 78 68 62 56 47 48 48 49 48 44 38 33 29 30 40 48 51 52 54 59 62 65 71 81 88 86 83 85 85 85 84 83 80 79
104 105 98 99 100 93 90 98 79 87 86 73 67 54 43 41 38 47 45 39 35 32 26 29 34 36 43 47 55 58 62 69 75 87 92 94 93 89 88 86 84 81 82
117 110 104 100 102 100 92 92 91 74 82 84 77 60 43 41 40 40 38 36 31 32 33 30 21 19 32 42 46 49 51 55 71 88 93 93 98 97 94 91 88 86 85
122 118 115 109 108 112 118 117 107 88 75 80 79 51 29 40 44 35 33 35 29 26 34 31 28 23 16 29 37 42 44 53 68 85 90 90 97 102 100 98 92 91 90
127 133 135 131 123 117 114 121 117 106 89 70 102 92 33 11 15 24 26 37 22 19 31 30 32 31 21 18 25 36 39 54 63 75 80 85 89 96 101 99 95 93 90
123 133 143 136 138 141 152 160 150 135 143 82 83 131 133 176 335 353 12 25 20 23 14 18 30 26 26 28 18 24 31 44 57 64 73 80 85 90 97 97 97 99 94
88 128 144 140 145 150 160 179 166 148 143 151 86 64 123 149 140 8 345 359 15 22 8 13 17 16 20 22 23 28 33 34 44 55 64 72 79 85 89 92 93 95 94
56 100 135 146 158 163 169 171 161 160 157 158 158 139 98 77 109 142 249 329 351 351 358 3 7 5 5 8 11 27 30 30 32 36 48 59 66 82 85 89 94 99 98
23 43 112 150 171 172 177 180 177 174 174 164 165 159 157 154 164 152 168 239 314 323 349 4 4 350 350 356 2 22 19 25 30 30 33 42 50 60 66 79 100 109 104
357 320 89 176 183 192 185 170 169 184 181 177 182 183 178 176 159 150 144 160 180 318 344 353 339 338 350 4 354 2 8 20 29 33 33 37 41 42 43 48 78 100 101
214 215 142 116 144 163 167 164 179 195 182 188 192 178 170 184 171 163 157 150 130 356 346 308 330 340 349 352 2 3 3 17 19 25 27 34 42 46 48 49 63 84 90
200 163 129 104 75 107 127 145 161 198 174 190 189 174 167 179 167 166 156 156 152 165 247 280 301 317 329 10 17 23 9 25 28 29 29 35 48 54 60 63 62 66 79
184 150 137 135 112 94 110 120 110 160 148 170 163 148 153 158 141 138 143 139 139 150 180 238 243 291 340 40 43 33 16 19 27 38 44 52 63 72 74 78 76 71 69
173 170 173 157 137 110 100 110 120 127 141 138 134 158 173 152 141 140 130 131 131 135 149 245 295 356 38 27 15 23 18 8 2 32 47 60 70 76 79 79 90 86 79
170 170 159 150 154 147 135 132 159 150 161 177 188 157 169 145 144 145 142 150 157 156 150 166 286 22 19 358 23 21 7 7 350 13 43 55 63 75 81 85 92 94 94
164 153 146 157 172 176 170 181 178 178 184 198 190 179 179 146 155 155 149 153 160 151 140 148 166 115 3 38 46 16 8 347 336 349 13 27 59 80 83 86 96 108 104
163 172 178 184 197 196 181 171 157 170 188 194 185 186 183 173 179 173 165 168 149 137 133 139 147 155 178 19 84 46 348 347 335 348 7 14 15 40 74 98 109 118 118
169 171 159 180 207 197 196 175 175 175 175 190 193 199 194 179 185 179 171 170 157 150 145 146 155 133 166 157 196 201 207 323 321 320 345 347 358 354 348 345 130 152 150
160 156 172 185 208 243 220 180 161 168 175 179 221 261 228 182 194 189 183 177 171 168 172 165 170 185 214 205 182 175 162 105 299 305 105 313 36 283 284 255 267 235 222
170 182 195 196 227 249 235 207 179 162 169 192 210 211 213 213 188 182 174 167 180 182 178 175 182 203 201 199 173 174 183 188 221 245 138 279 311 277 275 277 264 239 230
188 200 208 215 233 258 236 214 190 174 174 202 215 210 200 216 195 155 151 150 184 210 201 191 195 211 209 192 183 187 189 178 279 286 139 196 273 265 297 292 285 254 247
206 212 206 205 219 258 238 206 175 171 194 231 239 220 198 215 209 161 152 166 202 264 235 193 193 208 211 185 164 139 138 140 245 267 181 178 221 275 301 291 295 289 256
213 208 216 218 221 243 246 210 178 173 199 233 252 243 219 210 205 181 177 179 199 231 222 208 204 232 231 205 183 181 178 174 192 245 215 180 192 156 295 295 316 326 296